*** The Vicarage Weather Feed ***
The Vicarage Weather Station Historical Data
 
Daily Summary for March 30, 2020 Units:  Metric    English   Both
Daily Weekly Monthly Yearly Custom
  Current: High: Low: Average:
Temperature: 7.8 °C 8.9 °C 7.2 °C 7.7 °C
Dew Point: 4.4 °C 4.4 °C 3.9 °C 4.1 °C
Humidity: 78% 80% 74% 78%
Wind Speed: 189.9km/h 223.7km/h 0km/h 107.2km/h
Wind Gust: 223.7km/h 225.3km/h - -
WindWest - - West
Pressure: 1004.6 hPa 1005.6 hPa 1004.3 hPa -
Precipitation: 0.25 mm      
Historical Graphs
 
 
Tabular Data for March 30, 2020
Time Temperature Dew Point Pressure Wind Wind Speed Wind Gust Humidity Rainfall Rate (Hourly) solar
00:00 8.9 °C 4.4 °C 1005.6 hPa SSW 9.7 km/h 218.9 km/h 74% 0 mm W/m2
00:10 8.3 °C 4.4 °C 1005.6 hPa West 223.7 km/h 223.7 km/h 74% 0 mm W/m2
00:20 8.3 °C 4.4 °C 1005.6 hPa North 123.9 km/h 223.7 km/h 75% 0 mm W/m2
00:30 8.3 °C 4.4 °C 1005.6 hPa SW 17.7 km/h 223.7 km/h 76% 0 mm W/m2
00:40 8.3 °C 4.4 °C 1005.6 hPa Calm   74 km/h 76% 0 mm W/m2
00:50 8.3 °C 3.9 °C 1005.6 hPa WSW 104.6 km/h 212.4 km/h 76% 0 mm W/m2
01:00 7.8 °C 4.4 °C 1005.6 hPa West 222.1 km/h 222.1 km/h 77% 0 mm W/m2
01:10 7.8 °C 3.9 °C 1005.6 hPa SW 210.8 km/h 222.1 km/h 77% 0 mm W/m2
01:20 7.8 °C 3.9 °C 1005.6 hPa WSW 222.1 km/h 222.1 km/h 77% 0 mm W/m2
01:30 7.8 °C 4.4 °C 1005.6 hPa West 222.1 km/h 223.7 km/h 77% 0 mm W/m2
01:40 7.8 °C 3.9 °C 1005.6 hPa SW 177 km/h 223.7 km/h 77% 0 mm W/m2
01:50 7.8 °C 3.9 °C 1005.6 hPa WSW 217.3 km/h 222.1 km/h 77% 0 mm W/m2
02:00 7.8 °C 3.9 °C 1005.6 hPa North 218.9 km/h 222.1 km/h 77% 0 mm W/m2
02:10 7.8 °C 3.9 °C 1005.6 hPa Calm   220.5 km/h 77% 0 mm W/m2
02:20 7.8 °C 3.9 °C 1005.6 hPa Calm   223.7 km/h 78% 0 mm W/m2
02:30 7.8 °C 3.9 °C 1005.3 hPa Calm     78% 0 mm W/m2
02:40 7.8 °C 3.9 °C 1005 hPa Calm     78% 0 mm W/m2
02:50 7.2 °C 3.9 °C 1005 hPa Calm     78% 0 mm W/m2
03:00 7.2 °C 3.9 °C 1005 hPa Calm     79% 0 mm W/m2
03:10 7.2 °C 3.9 °C 1004.6 hPa Calm     79% 0.25 mm W/m2
03:20 7.2 °C 3.9 °C 1004.6 hPa Calm     79% 0.25 mm W/m2
03:30 7.2 °C 4.4 °C 1004.6 hPa Calm     80% 0.25 mm W/m2
03:40 7.2 °C 4.4 °C 1004.6 hPa WSW 218.9 km/h 222.1 km/h 80% 0.25 mm W/m2
03:50 7.2 °C 3.9 °C 1004.3 hPa Calm   222.1 km/h 80% 0.25 mm W/m2
04:00 7.2 °C 3.9 °C 1004.3 hPa WSW 183.5 km/h 194.7 km/h 80% 0.25 mm W/m2
04:10 7.2 °C 3.9 °C 1004.3 hPa NW 218.9 km/h 223.7 km/h 80% 0 mm W/m2
04:20 7.8 °C 3.9 °C 1004.3 hPa WNW 222.1 km/h 225.3 km/h 79% 0 mm W/m2
04:30 7.8 °C 4.4 °C 1004.6 hPa West 189.9 km/h 223.7 km/h 78% 0 mm W/m2
Compliments of Weather Underground - 2.75 mb
This data is offered only as a general guide to local weather conditions. It should not be relied upon in lieu of officially disseminated weather information for determining possible risk to persons or property. This site, including all information contained therein, is made available as is without warranties of any kind, either express or implied. The Vicarage Weather Feed© includes links to other sites for user convenience only. The content of any linked third-party site is not controlled by The Vicarage Weather Feed©. Access to any third-party website through The Vicarage Weather Feed©, regardless of whether or not the third-party site is a linked site, is entirely at the users own risk. Externally sourced content or material is excluded from The Vicarage Weather Feed© copyright and is the copyright and property of the respective provider. Skywarn® and the Skywarn® logo are registered trademarks of the National Oceanic and Atmospheric Administration, used with permission.